{"data":{"norad_id":47386,"epoch":"2026-05-25T00:14:53.896128Z","epoch_age_seconds":81144,"freshness":"FRESH","line1":"1 47386U 21005AP  26145.01034602  .00002184  00000+0  85846-4 0  9999","line2":"2 47386  53.1591  42.1911 0001168  94.7834 265.3300 15.30193500295072","mean_motion":15.301935,"eccentricity":0.0001168,"inclination_deg":53.1591,"raan_deg":42.1911,"arg_perigee_deg":94.7834,"mean_anomaly_deg":265.33,"bstar":8.5846e-5,"rev_number":29507,"period_min":94.10574544984,"perigee_km":474.43400352784,"apogee_km":476.03495110494,"semimajor_km":6853.3714773164,"source":"CELESTRAK","updated_at":"2026-05-25T13:38:16.552461Z"}}